This is the latest recevied weather packets stored in our database for station/object F4DYW-13. If no packets are shown the sender has not sent any weather packets the latest 10 day(s).
| Time | Temp. | Humidity | Pressure | Rain* | Wind** | Luminosity | Snow |
|---|---|---|---|---|---|---|---|
| 1777816991 | 18.89° C | 67% | 1020 hPa | 0 mm | - | - | - |
| 1777815955 | 18.89° C | 65% | 1020.3 hPa | 0 mm | - | - | - |
| 1777814919 | 18.33° C | 66% | 1020.7 hPa | 0 mm | - | - | - |
| 1777813884 | 18.33° C | 69% | 1020.6 hPa | 0 mm | - | - | - |
| 1777812848 | 18.33° C | 69% | 1021 hPa | 0 mm | - | - | - |
| 1777811812 | 18.33° C | 68% | 1021 hPa | 0 mm | - | - | - |
| 1777810777 | 18.33° C | 69% | 1021.1 hPa | 0 mm | - | - | - |
| 1777809741 | 18.33° C | 70% | 1021.4 hPa | 0 mm | - | - | - |
| 1777808705 | 18.33° C | 69% | 1021.5 hPa | 0 mm | - | - | - |
| 1777807670 | 18.33° C | 69% | 1021.4 hPa | 0 mm | - | - | - |
| 1777806634 | 18.33° C | 70% | 1021.3 hPa | 0 mm | - | - | - |
| 1777805598 | 18.33° C | 71% | 1021.5 hPa | 0 mm | - | - | - |
| 1777804563 | 18.33° C | 70% | 1021.4 hPa | 0 mm | - | - | - |
| 1777803527 | 18.33° C | 70% | 1021.4 hPa | 0 mm | - | - | - |
| 1777802492 | 18.33° C | 71% | 1021.7 hPa | 0 mm | - | - | - |
| 1777801455 | 18.33° C | 71% | 1021.8 hPa | 0 mm | - | - | - |
| 1777800420 | 18.33° C | 73% | 1021.6 hPa | 0 mm | - | - | - |
| 1777799384 | 18.33° C | 71% | 1021.6 hPa | 0 mm | - | - | - |
| 1777798349 | 18.33° C | 67% | 1021.6 hPa | 0 mm | - | - | - |
| 1777797298 | 18.33° C | 67% | 1021.5 hPa | 0 mm | - | - | - |
| 1777795211 | 18.33° C | 66% | 1021.4 hPa | 0 mm | - | - | - |
| 1777794173 | 18.33° C | 66% | 1021.3 hPa | 0 mm | - | - | - |
| 1777793136 | 18.33° C | 67% | 1021.4 hPa | 0 mm | - | - | - |
| 1777792101 | 18.33° C | 66% | 1021.2 hPa | 0 mm | - | - | - |
| 1777791063 | 18.33° C | 65% | 1021.1 hPa | 0 mm | - | - | - |
* Rain latest hour (hover to see other rain measurements)
** Current wind speed in m/s (hover to see current wind gust speed)